User: anonymous   Login
Location: Mohawk View
(42.7837°N, 73.7885°W)
Time: 18:29:26
(UTC+00:00)
Language:

FENGYUN 1C DEB - Orbit

View from above orbital plane
View from above orbital plane
View from above satellite
View from above satellite

Ground track
Ground track

The orbit data is extracted from the following two-line orbital elements,

1 29972U 99025KW  22015.71937394  .00001474  00000-0  42162-3 0  9991
2 29972  98.8486 288.7484 0095086   5.8099  46.7243 14.44090987787693
Epoch (UTC): 15 January 2022 17:15:53
Eccentricity: 0.0095086
inclination: 98.8486°
perigee height: 677 km
apogee height: 813 km
right ascension of ascending node: 288.7484°
argument of perigee: 5.8099°
revolutions per day: 14.44090987
mean anomaly at epoch: 46.7243°
orbit number at epoch: 78769

The dashed part of the orbit path shows where the satellite is in the earth's shadow,  

DLR